QPF
0.03 0.05 0.04 0.03 0.02 0.02 0.02 0.02 0.02 0.04 0.03 0.03 0.03 0.02 0.03 0.03 0.02 0.03 0.04 0.06 0.06 0.06 0.07 0.08 0.08 0.08 0.08 0.09 0.10 0.10 0.10 0.10 0.10 0.11 0.12 0.18 0.24 0.22 0.18 0.14 0.11 0.09 0.07
0.01 0.01 0.02 0.01 0.02 0.03 0.03 0.02 0.03 0.03 0.03 0.02 0.02 0.02 0.02 0.02 0.01 0.02 0.04 0.06 0.06 0.05 0.06 0.07 0.08 0.09 0.09 0.10 0.09 0.09 0.09 0.09 0.09 0.08 0.07 0.07 0.12 0.19 0.21 0.16 0.11 0.08 0.07
0.02 0.02 0.01 0.01 0.01 0.03 0.06 0.07 0.05 0.04 0.03 0.03 0.02 0.02 0.01 0.01 0.01 0.01 0.03 0.04 0.04 0.06 0.08 0.08 0.08 0.08 0.08 0.09 0.09 0.09 0.08 0.08 0.09 0.09 0.08 0.07 0.05 0.06 0.09 0.10 0.08 0.06 0.06
0.03 0.02 0.02 0.01 0.01 0.02 0.04 0.08 0.08 0.06 0.05 0.04 0.04 0.04 0.03 0.02 0.01 0.01 0.02 0.03 0.04 0.05 0.06 0.07 0.07 0.07 0.07 0.07 0.07 0.07 0.08 0.07 0.08 0.08 0.08 0.07 0.06 0.05 0.05 0.05 0.06 0.05 0.05
0.05 0.04 0.03 0.02 0.02 0.02 0.02 0.05 0.07 0.06 0.06 0.06 0.06 0.06 0.03 0.01 0.01 0.01 0.01 0.01 0.03 0.05 0.04 0.06 0.07 0.07 0.07 0.09 0.10 0.08 0.08 0.09 0.07 0.06 0.07 0.07 0.07 0.06 0.05 0.05 0.04 0.04 0.04
0.04 0.05 0.05 0.04 0.02 0.02 0.02 0.03 0.06 0.06 0.06 0.06 0.07 0.06 0.04 0.02 0.02 0.01 0.01 0.01 0.02 0.04 0.04 0.04 0.06 0.07 0.07 0.09 0.10 0.10 0.09 0.10 0.09 0.07 0.07 0.07 0.07 0.07 0.06 0.05 0.04 0.04 0.04
0.03 0.03 0.03 0.03 0.02 0.02 0.02 0.03 0.04 0.04 0.05 0.05 0.07 0.06 0.04 0.04 0.03 0.02 0.02 0.01 0.02 0.03 0.04 0.02 0.03 0.05 0.05 0.06 0.08 0.09 0.10 0.11 0.11 0.09 0.08 0.07 0.07 0.07 0.06 0.05 0.05 0.05 0.06
0.02 0.02 0.02 0.02 0.02 0.02 0.04 0.04 0.03 0.03 0.03 0.04 0.05 0.04 0.03 0.03 0.03 0.02 0.01 0.01 0.02 0.03 0.04 0.03 0.03 0.03 0.04 0.05 0.04 0.06 0.07 0.08 0.09 0.10 0.09 0.08 0.07 0.07 0.07 0.07 0.07 0.06 0.06
0.01 0.01 0.01 0.01 0.01 0.01 0.02 0.03 0.03 0.03 0.03 0.03 0.04 0.03 0.02 0.02 0.02 0.02 0.02 0.01 0.02 0.02 0.03 0.03 0.03 0.02 0.02 0.04 0.04 0.04 0.06 0.06 0.07 0.10 0.10 0.08 0.08 0.07 0.07 0.07 0.08 0.08 0.08
0.01 0.01 0.01 0.01 0.01 0.01 0.01 0.02 0.02 0.02 0.03 0.02 0.02 0.02 0.02 0.01 0.01 0.01 0.02 0.01 0.01 0.02 0.02 0.02 0.02 0.02 0.01 0.02 0.02 0.02 0.03 0.04 0.06 0.09 0.11 0.12 0.09 0.08 0.08 0.07 0.06 0.08 0.09
0.01 0.02 0.01 0.01 0.01 0.01 0.01 0.01 0.02 0.01 0.02 0.02 0.02 0.02 0.02 0.01 0.01 0.01 0.02 0.02 0.02 0.02 0.02 0.02 0.01 0.01 0.01 0.01 0.01 0.01 0.01 0.02 0.03 0.05 0.07 0.10 0.12 0.12 0.11 0.08 0.07 0.07 0.08
0.02 0.02 0.02 0.01 0.01 0.01 0.01 0.02 0.02 0.02 0.02 0.02 0.02 0.02 0.02 0.02 0.01 0.01 0.01 0.01 0.02 0.02 0.02 0.02 0.02 0.01 0.01 0.01 0.00 0.00 0.01 0.01 0.01 0.03 0.04 0.07 0.13 0.16 0.12 0.10 0.10 0.09 0.07
0.01 0.02 0.01 0.01 0.01 0.01 0.01 0.02 0.02 0.03 0.03 0.03 0.02 0.02 0.02 0.02 0.01 0.01 0.01 0.01 0.01 0.01 0.02 0.03 0.03 0.02 0.01 0.00 0.00 0.01 0.01 0.01 0.02 0.02 0.03 0.05 0.09 0.12 0.10 0.09 0.09 0.10 0.09
0.02 0.02 0.01 0.01 0.01 0.01 0.02 0.02 0.02 0.04 0.04 0.03 0.03 0.02 0.03 0.03 0.02 0.01 0.01 0.01 0.01 0.01 0.01 0.02 0.02 0.03 0.02 0.01 0.01 0.01 0.02 0.02 0.02 0.02 0.03 0.04 0.06 0.09 0.10 0.08 0.08 0.09 0.08
0.02 0.03 0.02 0.01 0.01 0.01 0.02 0.02 0.02 0.03 0.04 0.04 0.04 0.04 0.04 0.03 0.03 0.02 0.02 0.02 0.02 0.03 0.02 0.02 0.02 0.03 0.03 0.02 0.02 0.02 0.02 0.03 0.03 0.03 0.03 0.04 0.05 0.08 0.09 0.08 0.07 0.06 0.05
0.02 0.02 0.01 0.01 0.01 0.02 0.02 0.03 0.03 0.03 0.04 0.04 0.04 0.03 0.02 0.02 0.03 0.03 0.03 0.02 0.03 0.04 0.03 0.03 0.03 0.03 0.03 0.03 0.03 0.03 0.03 0.03 0.03 0.03 0.04 0.06 0.07 0.07 0.09 0.09 0.06 0.05 0.04
0.01 0.01 0.01 0.01 0.01 0.01 0.02 0.04 0.04 0.04 0.04 0.04 0.03 0.02 0.02 0.02 0.02 0.02 0.03 0.03 0.03 0.03 0.02 0.02 0.04 0.05 0.04 0.03 0.03 0.03 0.03 0.03 0.03 0.04 0.05 0.07 0.10 0.10 0.08 0.09 0.07 0.05 0.04
0.01 0.01 0.02 0.01 0.00 0.00 0.01 0.03 0.05 0.05 0.06 0.07 0.05 0.04 0.02 0.02 0.02 0.01 0.01 0.01 0.02 0.02 0.02 0.02 0.03 0.06 0.05 0.03 0.03 0.04 0.04 0.03 0.03 0.03 0.04 0.06 0.10 0.12 0.11 0.10 0.07 0.05 0.04
0.01 0.01 0.01 0.01 0.01 0.01 0.01 0.02 0.03 0.03 0.03 0.04 0.05 0.06 0.06 0.05 0.03 0.02 0.02 0.01 0.02 0.02 0.02 0.03 0.05 0.06 0.08 0.04 0.05 0.05 0.04 0.03 0.03 0.03 0.04 0.05 0.07 0.08 0.09 0.09 0.08 0.06 0.04
0.04 0.03 0.02 0.02 0.01 0.01 0.01 0.02 0.02 0.02 0.02 0.02 0.02 0.03 0.04 0.06 0.06 0.05 0.04 0.03 0.02 0.02 0.03 0.04 0.07 0.08 0.06 0.05 0.05 0.05 0.05 0.04 0.03 0.03 0.04 0.04 0.07 0.08 0.07 0.08 0.07 0.05 0.04
0.07 0.05 0.04 0.03 0.02 0.02 0.02 0.02 0.02 0.01 0.01 0.01 0.01 0.01 0.01 0.02 0.02 0.03 0.03 0.03 0.03 0.03 0.02 0.03 0.06 0.09 0.07 0.06 0.05 0.05 0.04 0.04 0.04 0.04 0.04 0.04 0.06 0.07 0.07 0.07 0.06 0.05 0.04
0.06 0.05 0.04 0.03 0.02 0.01 0.01 0.01 0.01 0.01 0.01 0.01 0.01 0.01 0.01 0.01 0.02 0.02 0.02 0.03 0.03 0.03 0.02 0.02 0.04 0.05 0.06 0.05 0.06 0.06 0.05 0.04 0.04 0.05 0.05 0.05 0.06 0.06 0.06 0.06 0.06 0.05 0.04
0.05 0.04 0.03 0.03 0.02 0.02 0.01 0.01 0.01 0.01 0.01 0.01 0.01 0.01 0.01 0.01 0.01 0.01 0.02 0.02 0.02 0.03 0.03 0.03 0.03 0.03 0.05 0.06 0.06 0.06 0.05 0.03 0.03 0.03 0.03 0.04 0.06 0.06 0.06 0.06 0.06 0.05 0.04
0.05 0.05 0.04 0.03 0.03 0.02 0.01 0.00 0.00 0.01 0.01 0.01 0.01 0.01 0.01 0.01 0.01 0.01 0.02 0.02 0.03 0.03 0.03 0.02 0.02 0.02 0.04 0.06 0.06 0.05 0.05 0.04 0.03 0.03 0.03 0.04 0.05 0.05 0.06 0.06 0.05 0.05 0.05
0.01 0.02 0.03 0.03 0.02 0.01 0.01 0.00 0.00 0.01 0.01 0.01 0.01 0.01 0.01 0.01 0.01 0.01 0.01 0.02 0.03 0.04 0.04 0.03 0.02 0.01 0.02 0.03 0.04 0.05 0.06 0.05 0.04 0.04 0.04 0.04 0.05 0.05 0.05 0.05 0.05 0.04 0.04
0.01 0.00 0.01 0.02 0.01 0.00 0.00 0.00 0.00 0.00 0.00 0.00 0.00 0.00 0.01 0.01 0.01 0.00 0.00 0.01 0.02 0.02 0.03 0.02 0.02 0.02 0.02 0.02 0.03 0.04 0.05 0.05 0.04 0.04 0.04 0.04 0.05 0.05 0.05 0.05 0.04 0.03 0.03
MSLP
1012.89 1012.82 1012.72 1012.61 1012.51 1012.45 1012.44 1012.46 1012.50 1012.53 1012.54 1012.51 1012.45 1012.37 1012.27 1012.18 1012.12 1012.09 1012.10 1012.12 1012.17 1012.22 1012.29 1012.37 1012.50 1012.68 1012.94 1013.28 1013.69 1014.17 1014.69 1015.22 1015.74 1016.23 1016.71 1017.16 1017.60 1018.05 1018.51 1019.00 1019.50 1020.01 1020.52
1013.00 1012.94 1012.85 1012.75 1012.68 1012.63 1012.61 1012.62 1012.64 1012.64 1012.62 1012.56 1012.47 1012.34 1012.20 1012.07 1011.95 1011.85 1011.78 1011.74 1011.72 1011.72 1011.76 1011.83 1011.95 1012.14 1012.40 1012.74 1013.15 1013.62 1014.12 1014.64 1015.16 1015.67 1016.16 1016.63 1017.11 1017.59 1018.08 1018.58 1019.09 1019.61 1020.12
1013.05 1013.00 1012.94 1012.87 1012.82 1012.80 1012.79 1012.79 1012.78 1012.76 1012.70 1012.61 1012.47 1012.31 1012.13 1011.94 1011.76 1011.60 1011.45 1011.34 1011.26 1011.21 1011.21 1011.26 1011.38 1011.58 1011.85 1012.19 1012.60 1013.05 1013.54 1014.05 1014.56 1015.07 1015.57 1016.07 1016.57 1017.07 1017.58 1018.11 1018.64 1019.17 1019.70
1013.04 1013.01 1012.98 1012.96 1012.94 1012.94 1012.94 1012.94 1012.91 1012.86 1012.77 1012.64 1012.47 1012.28 1012.06 1011.82 1011.59 1011.36 1011.14 1010.96 1010.81 1010.71 1010.67 1010.70 1010.81 1011.00 1011.28 1011.62 1012.03 1012.48 1012.96 1013.46 1013.96 1014.46 1014.97 1015.48 1015.99 1016.52 1017.05 1017.60 1018.15 1018.71 1019.26
1012.97 1012.97 1012.98 1013.00 1013.03 1013.05 1013.07 1013.06 1013.02 1012.94 1012.82 1012.66 1012.47 1012.24 1011.99 1011.72 1011.44 1011.16 1010.88 1010.63 1010.41 1010.26 1010.17 1010.17 1010.26 1010.44 1010.71 1011.05 1011.45 1011.89 1012.37 1012.85 1013.35 1013.85 1014.36 1014.87 1015.40 1015.94 1016.49 1017.06 1017.64 1018.22 1018.81
1012.87 1012.89 1012.93 1013.00 1013.07 1013.13 1013.16 1013.15 1013.10 1013.00 1012.86 1012.68 1012.47 1012.23 1011.96 1011.67 1011.35 1011.02 1010.70 1010.38 1010.10 1009.88 1009.74 1009.69 1009.74 1009.89 1010.14 1010.47 1010.86 1011.30 1011.76 1012.24 1012.74 1013.24 1013.75 1014.27 1014.80 1015.36 1015.92 1016.51 1017.11 1017.72 1018.34
1012.74 1012.79 1012.87 1012.98 1013.08 1013.17 1013.22 1013.21 1013.15 1013.04 1012.89 1012.70 1012.49 1012.25 1011.98 1011.68 1011.35 1010.99 1010.61 1010.24 1009.90 1009.61 1009.39 1009.28 1009.28 1009.39 1009.60 1009.90 1010.27 1010.69 1011.14 1011.62 1012.11 1012.61 1013.13 1013.66 1014.20 1014.77 1015.35 1015.95 1016.56 1017.20 1017.85
1012.62 1012.69 1012.80 1012.94 1013.08 1013.18 1013.24 1013.24 1013.18 1013.07 1012.92 1012.73 1012.53 1012.31 1012.05 1011.76 1011.42 1011.05 1010.64 1010.22 1009.81 1009.44 1009.15 1008.96 1008.88 1008.92 1009.08 1009.33 1009.66 1010.06 1010.50 1010.97 1011.46 1011.97 1012.50 1013.04 1013.60 1014.17 1014.76 1015.37 1016.00 1016.64 1017.31
1012.53 1012.62 1012.76 1012.91 1013.06 1013.18 1013.24 1013.24 1013.18 1013.07 1012.93 1012.77 1012.59 1012.39 1012.16 1011.89 1011.57 1011.19 1010.76 1010.29 1009.82 1009.38 1009.01 1008.73 1008.56 1008.51 1008.59 1008.78 1009.06 1009.42 1009.84 1010.30 1010.79 1011.31 1011.85 1012.41 1012.98 1013.57 1014.17 1014.78 1015.41 1016.06 1016.73
1012.49 1012.59 1012.74 1012.90 1013.05 1013.16 1013.21 1013.21 1013.14 1013.04 1012.91 1012.78 1012.63 1012.47 1012.27 1012.04 1011.73 1011.36 1010.91 1010.42 1009.90 1009.40 1008.94 1008.57 1008.31 1008.17 1008.16 1008.27 1008.48 1008.79 1009.17 1009.61 1010.10 1010.63 1011.19 1011.76 1012.35 1012.95 1013.56 1014.18 1014.81 1015.46 1016.12
1012.49 1012.60 1012.74 1012.89 1013.02 1013.11 1013.15 1013.13 1013.06 1012.96 1012.84 1012.73 1012.61 1012.49 1012.33 1012.13 1011.85 1011.49 1011.05 1010.54 1009.99 1009.44 1008.93 1008.48 1008.13 1007.91 1007.80 1007.82 1007.96 1008.20 1008.54 1008.95 1009.42 1009.95 1010.51 1011.10 1011.71 1012.33 1012.95 1013.58 1014.21 1014.85 1015.50
1012.51 1012.61 1012.74 1012.87 1012.97 1013.02 1013.03 1012.98 1012.89 1012.79 1012.68 1012.59 1012.50 1012.41 1012.29 1012.12 1011.87 1011.54 1011.11 1010.61 1010.06 1009.49 1008.94 1008.44 1008.03 1007.73 1007.54 1007.48 1007.53 1007.70 1007.97 1008.34 1008.78 1009.29 1009.85 1010.45 1011.07 1011.70 1012.34 1012.97 1013.61 1014.25 1014.90
1012.50 1012.60 1012.70 1012.80 1012.86 1012.87 1012.83 1012.75 1012.64 1012.52 1012.42 1012.33 1012.26 1012.19 1012.10 1011.96 1011.75 1011.45 1011.05 1010.58 1010.05 1009.50 1008.95 1008.43 1007.99 1007.64 1007.39 1007.26 1007.23 1007.32 1007.52 1007.82 1008.21 1008.69 1009.23 1009.82 1010.45 1011.09 1011.74 1012.39 1013.03 1013.68 1014.33
1012.44 1012.52 1012.60 1012.66 1012.67 1012.64 1012.55 1012.43 1012.30 1012.17 1012.05 1011.97 1011.90 1011.85 1011.77 1011.66 1011.48 1011.21 1010.86 1010.44 1009.96 1009.45 1008.94 1008.45 1008.02 1007.65 1007.36 1007.17 1007.08 1007.09 1007.21 1007.43 1007.76 1008.18 1008.68 1009.24 1009.85 1010.50 1011.15 1011.81 1012.47 1013.12 1013.77
1012.30 1012.36 1012.41 1012.43 1012.40 1012.32 1012.20 1012.05 1011.89 1011.74 1011.61 1011.52 1011.46 1011.40 1011.33 1011.23 1011.08 1010.85 1010.55 1010.19 1009.78 1009.35 1008.91 1008.48 1008.08 1007.73 1007.44 1007.22 1007.07 1007.01 1007.05 1007.18 1007.43 1007.77 1008.21 1008.73 1009.31 1009.93 1010.58 1011.24 1011.90 1012.56 1013.22
1012.05 1012.11 1012.14 1012.13 1012.07 1011.96 1011.81 1011.63 1011.45 1011.28 1011.15 1011.04 1010.97 1010.91 1010.84 1010.74 1010.60 1010.40 1010.15 1009.86 1009.53 1009.19 1008.84 1008.49 1008.17 1007.87 1007.60 1007.37 1007.19 1007.07 1007.03 1007.08 1007.23 1007.49 1007.85 1008.30 1008.82 1009.40 1010.02 1010.66 1011.31 1011.97 1012.63
1011.73 1011.77 1011.79 1011.76 1011.68 1011.56 1011.39 1011.20 1011.02 1010.85 1010.70 1010.59 1010.50 1010.42 1010.34 1010.23 1010.10 1009.92 1009.72 1009.48 1009.23 1008.98 1008.73 1008.48 1008.24 1008.01 1007.78 1007.57 1007.38 1007.22 1007.12 1007.09 1007.15 1007.31 1007.58 1007.94 1008.38 1008.89 1009.46 1010.06 1010.68 1011.32 1011.97
1011.35 1011.39 1011.40 1011.36 1011.28 1011.15 1010.98 1010.80 1010.62 1010.45 1010.30 1010.19 1010.08 1009.99 1009.89 1009.77 1009.63 1009.46 1009.28 1009.09 1008.90 1008.73 1008.57 1008.42 1008.27 1008.11 1007.94 1007.76 1007.58 1007.41 1007.26 1007.17 1007.16 1007.23 1007.40 1007.66 1008.00 1008.43 1008.91 1009.44 1010.00 1010.60 1011.22
1010.95 1010.99 1010.99 1010.95 1010.87 1010.74 1010.58 1010.41 1010.24 1010.08 1009.95 1009.83 1009.72 1009.62 1009.50 1009.36 1009.20 1009.03 1008.86 1008.70 1008.56 1008.44 1008.36 1008.28 1008.21 1008.13 1008.02 1007.89 1007.74 1007.57 1007.41 1007.28 1007.20 1007.20 1007.28 1007.44 1007.69 1008.01 1008.39 1008.83 1009.31 1009.83 1010.39
1010.56 1010.58 1010.57 1010.53 1010.44 1010.32 1010.17 1010.01 1009.85 1009.71 1009.59 1009.48 1009.38 1009.27 1009.14 1008.99 1008.82 1008.65 1008.47 1008.32 1008.20 1008.13 1008.08 1008.07 1008.06 1008.04 1008.00 1007.92 1007.80 1007.66 1007.51 1007.37 1007.26 1007.21 1007.22 1007.30 1007.44 1007.66 1007.93 1008.25 1008.63 1009.06 1009.54
1010.18 1010.17 1010.14 1010.07 1009.97 1009.84 1009.69 1009.53 1009.39 1009.27 1009.17 1009.09 1009.00 1008.90 1008.78 1008.63 1008.46 1008.28 1008.10 1007.95 1007.84 1007.77 1007.76 1007.77 1007.81 1007.84 1007.84 1007.82 1007.75 1007.65 1007.53 1007.41 1007.30 1007.23 1007.19 1007.21 1007.28 1007.39 1007.56 1007.77 1008.04 1008.36 1008.75
1009.80 1009.75 1009.67 1009.56 1009.42 1009.26 1009.09 1008.93 1008.80 1008.69 1008.62 1008.57 1008.51 1008.45 1008.35 1008.22 1008.07 1007.89 1007.72 1007.57 1007.46 1007.39 1007.38 1007.41 1007.46 1007.52 1007.57 1007.59 1007.57 1007.53 1007.46 1007.38 1007.29 1007.23 1007.19 1007.17 1007.19 1007.23 1007.31 1007.43 1007.59 1007.81 1008.10
1009.40 1009.27 1009.13 1008.95 1008.75 1008.54 1008.33 1008.16 1008.02 1007.94 1007.90 1007.88 1007.88 1007.86 1007.82 1007.74 1007.61 1007.47 1007.31 1007.17 1007.05 1006.99 1006.97 1006.99 1007.05 1007.12 1007.19 1007.25 1007.28 1007.29 1007.28 1007.25 1007.22 1007.20 1007.18 1007.17 1007.16 1007.17 1007.19 1007.23 1007.31 1007.45 1007.66
1008.95 1008.74 1008.51 1008.24 1007.96 1007.68 1007.42 1007.22 1007.08 1007.01 1007.00 1007.03 1007.09 1007.14 1007.17 1007.15 1007.09 1006.99 1006.86 1006.74 1006.63 1006.56 1006.53 1006.54 1006.59 1006.65 1006.73 1006.81 1006.88 1006.94 1006.99 1007.03 1007.06 1007.10 1007.13 1007.15 1007.17 1007.17 1007.17 1007.18 1007.21 1007.29 1007.44
1008.45 1008.15 1007.81 1007.44 1007.07 1006.71 1006.40 1006.16 1006.01 1005.95 1005.97 1006.06 1006.19 1006.32 1006.42 1006.49 1006.50 1006.46 1006.38 1006.29 1006.20 1006.13 1006.09 1006.08 1006.10 1006.16 1006.23 1006.32 1006.41 1006.50 1006.60 1006.70 1006.81 1006.91 1007.00 1007.08 1007.15 1007.18 1007.20 1007.21 1007.23 1007.29 1007.41
1007.91 1007.51 1007.07 1006.61 1006.14 1005.71 1005.34 1005.07 1004.90 1004.86 1004.92 1005.06 1005.25 1005.45 1005.64 1005.78 1005.87 1005.90 1005.88 1005.83 1005.76 1005.69 1005.64 1005.62 1005.62 1005.65 1005.70 1005.78 1005.88 1005.99 1006.12 1006.28 1006.44 1006.60 1006.77 1006.92 1007.04 1007.13 1007.20 1007.24 1007.28 1007.35 1007.46
Thickness
5715 5713 5711 5709 5708 5707 5706 5705 5704 5703 5703 5703 5702 5702 5702 5702 5701 5701 5701 5702 5702 5702 5702 5702 5702 5703 5703 5703 5703 5703 5703 5702 5702 5702 5702 5702 5702 5702 5702 5702 5702 5702 5702
5711 5708 5706 5704 5703 5702 5701 5700 5699 5698 5697 5697 5697 5696 5696 5696 5696 5696 5696 5697 5697 5697 5697 5697 5697 5697 5698 5698 5698 5698 5698 5698 5699 5698 5699 5699 5699 5699 5699 5699 5699 5700 5700
5706 5704 5702 5700 5698 5696 5695 5694 5693 5692 5691 5691 5690 5690 5690 5690 5690 5690 5691 5691 5691 5692 5691 5691 5691 5691 5692 5692 5693 5693 5693 5694 5694 5694 5695 5695 5696 5696 5696 5696 5696 5697 5697
5702 5700 5697 5695 5693 5692 5690 5689 5687 5686 5685 5684 5684 5684 5684 5684 5685 5685 5685 5685 5685 5686 5686 5686 5686 5686 5686 5687 5687 5687 5688 5689 5690 5690 5690 5691 5692 5692 5693 5693 5693 5693 5694
5697 5695 5693 5690 5688 5687 5685 5684 5682 5680 5679 5678 5678 5679 5678 5679 5679 5679 5680 5680 5680 5680 5680 5680 5680 5680 5680 5681 5681 5682 5683 5684 5685 5685 5686 5687 5688 5689 5689 5689 5689 5690 5691
5693 5691 5688 5686 5684 5682 5679 5678 5676 5675 5673 5672 5673 5672 5671 5672 5673 5673 5674 5674 5674 5674 5674 5673 5673 5673 5674 5675 5676 5677 5678 5679 5680 5680 5681 5683 5684 5685 5685 5686 5686 5686 5687
5689 5686 5684 5681 5678 5676 5674 5672 5670 5669 5667 5666 5664 5663 5664 5666 5666 5666 5667 5667 5668 5668 5667 5667 5667 5667 5668 5669 5670 5672 5673 5674 5675 5676 5677 5678 5679 5680 5681 5682 5683 5683 5684
5685 5682 5679 5676 5674 5671 5668 5666 5664 5662 5660 5659 5657 5655 5654 5656 5658 5660 5660 5660 5660 5661 5661 5661 5661 5662 5662 5663 5665 5665 5666 5667 5669 5670 5672 5673 5675 5676 5677 5678 5679 5679 5679
5681 5678 5675 5672 5669 5667 5664 5661 5660 5657 5654 5653 5652 5650 5647 5646 5648 5651 5652 5652 5653 5653 5654 5655 5656 5656 5657 5658 5658 5659 5660 5662 5663 5665 5666 5668 5670 5671 5672 5673 5674 5675 5675
5677 5674 5671 5668 5665 5662 5660 5657 5655 5653 5650 5648 5647 5646 5644 5643 5640 5641 5643 5644 5645 5646 5647 5648 5649 5650 5651 5652 5652 5654 5655 5656 5657 5659 5661 5663 5665 5667 5668 5669 5670 5670 5671
5672 5669 5667 5664 5661 5658 5655 5653 5651 5648 5646 5644 5642 5641 5638 5636 5635 5633 5633 5635 5637 5639 5640 5641 5641 5642 5644 5645 5646 5648 5649 5651 5653 5654 5656 5658 5659 5661 5663 5664 5665 5666 5666
5667 5665 5663 5660 5657 5654 5651 5649 5647 5644 5642 5640 5638 5637 5635 5633 5631 5628 5627 5628 5629 5631 5633 5634 5635 5636 5637 5639 5640 5642 5643 5645 5647 5649 5651 5652 5654 5656 5658 5659 5660 5661 5662
5662 5661 5658 5656 5653 5650 5648 5645 5643 5640 5638 5636 5634 5633 5632 5630 5628 5625 5623 5623 5623 5625 5626 5628 5629 5630 5631 5632 5634 5636 5638 5639 5642 5644 5645 5647 5649 5651 5653 5655 5656 5656 5657
5660 5658 5655 5652 5650 5647 5645 5642 5639 5637 5635 5633 5631 5629 5628 5626 5624 5622 5620 5619 5618 5618 5619 5621 5622 5623 5625 5626 5628 5630 5632 5633 5635 5638 5640 5642 5644 5646 5648 5649 5650 5651 5651
5657 5654 5651 5648 5646 5643 5641 5638 5635 5633 5631 5629 5628 5626 5624 5623 5621 5619 5618 5616 5614 5613 5615 5615 5616 5618 5619 5621 5622 5624 5626 5628 5630 5632 5635 5637 5638 5640 5642 5643 5644 5645 5646
5654 5651 5647 5645 5642 5640 5637 5635 5632 5630 5627 5626 5624 5623 5621 5619 5617 5616 5614 5612 5611 5610 5610 5610 5610 5612 5613 5615 5616 5618 5620 5622 5624 5627 5629 5631 5633 5634 5635 5637 5638 5639 5640
5651 5648 5645 5642 5640 5637 5634 5632 5629 5627 5625 5623 5621 5619 5617 5616 5614 5612 5610 5609 5607 5606 5605 5605 5605 5606 5607 5608 5610 5612 5614 5616 5618 5620 5623 5625 5627 5628 5629 5630 5631 5633 5634
5649 5646 5643 5640 5637 5634 5631 5629 5626 5624 5621 5619 5617 5616 5614 5613 5611 5609 5607 5606 5604 5603 5602 5601 5601 5601 5601 5603 5604 5606 5608 5610 5612 5614 5616 5619 5620 5622 5623 5624 5625 5627 5628
5647 5644 5640 5637 5635 5632 5628 5626 5623 5621 5618 5616 5614 5612 5611 5609 5608 5606 5604 5603 5602 5600 5598 5597 5596 5596 5596 5598 5599 5601 5602 5604 5606 5608 5610 5612 5614 5616 5617 5618 5619 5620 5622
5645 5641 5638 5635 5632 5629 5626 5623 5620 5617 5615 5613 5611 5609 5608 5606 5605 5604 5602 5601 5599 5597 5594 5593 5592 5592 5592 5593 5594 5595 5597 5598 5600 5603 5604 5606 5608 5609 5611 5612 5613 5614 5615
5643 5639 5636 5633 5630 5627 5624 5620 5617 5615 5612 5610 5608 5607 5605 5604 5603 5601 5600 5598 5596 5594 5592 5590 5589 5589 5590 5590 5591 5592 5593 5594 5595 5597 5599 5601 5602 5604 5604 5606 5607 5608 5609
5639 5636 5633 5629 5626 5624 5621 5618 5615 5612 5609 5607 5605 5604 5603 5602 5601 5599 5598 5597 5595 5592 5590 5589 5588 5588 5589 5588 5588 5589 5590 5591 5592 5593 5595 5596 5598 5599 5600 5601 5602 5603 5603
5636 5633 5630 5626 5623 5620 5617 5615 5612 5609 5607 5604 5603 5601 5600 5600 5598 5596 5595 5594 5592 5591 5589 5588 5588 5588 5588 5588 5587 5588 5588 5589 5590 5591 5591 5592 5593 5594 5595 5596 5597 5598 5598
5633 5630 5627 5623 5620 5617 5615 5612 5610 5607 5604 5602 5600 5599 5597 5596 5595 5593 5593 5592 5590 5589 5588 5587 5587 5587 5587 5587 5587 5587 5588 5587 5587 5587 5588 5589 5589 5590 5591 5591 5592 5592 5592
5631 5627 5624 5621 5617 5615 5612 5610 5608 5604 5602 5600 5598 5596 5595 5594 5593 5591 5590 5589 5588 5587 5587 5586 5586 5586 5586 5585 5585 5586 5586 5587 5587 5587 5585 5586 5586 5585 5586 5586 5586 5586 5586
5628 5625 5622 5619 5615 5613 5611 5608 5606 5603 5600 5598 5596 5594 5592 5591 5590 5588 5588 5587 5586 5585 5585 5585 5585 5585 5584 5584 5584 5584 5585 5586 5586 5586 5584 5583 5583 5582 5582 5581 5581 5580 5580